Location: El Mouella
(16.4949°N, 9.1594°W)
Time: 21:18:32
(UTC+00:00)

CZ-4 R/B - Pass Details

Date: 02 June 2020
Orbit: 531 x 599 km, 97.8° (Epoch: 05 July)

Event Time Altitude Azimuth Distance (km) Brightness Sun altitude
Rises 19:41:37 0° 181° (S) 2,808 4.7 -8.5°
Reaches altitude 10° 19:43:50 10° 187° (S) 1,916 3.9 -8.9°
Maximum altitude 19:47:49 44° 260° (W) 823 2.7 -9.8°
Drops below altitude 10° 19:51:50 10° 333° (NNW) 1,932 5.0 -10.6°
Sets 19:54:05 0° 339° (NNW) 2,835 5.8 -11.1°
